[[{"header":{"parameterUnit":"m.s-1","parameterCategory":1,"la1":30.2991,"la2":30.254,"lo1":-89.0895,"lo2":-89.0444,"dy":0.0017,"dx":0.0017,"nx":28,"ny":28,"refTime":"2023-08-22T21:00:00:Z","depth":0,"parameterNumber":2,"parameterNumberName":"U-component_of_WINDS"},"data":[0,0,0,0,0,0,0,0,0,0,0,0,0,0,0,0,0,0,0,0,0,0,0,0,0,0,0,0,0,0,0,0,0,0,0,0,0,0,0,0,0,0,0,0,0,0,0,0,0,0,0,0,0,0,0,0,0,0,1.2282,1.2283,0,1.2367,1.2368,1.2369,1.2401,1.2401,1.24,1.24,1.2485,1.2488,1.249,0,0,0,0,0,0,0,0,0,0,0,0,0,1.2143,1.2145,1.2282,1.2283,1.2284,1.2367,1.2368,1.2369,1.2401,1.2401,1.24,1.24,1.2485,1.2488,1.2491,0,0,0,0,0,0,0,0,0,0,0,0,0,1.2213,1.2146,1.2282,1.231,1.2313,1.2367,1.2368,1.237,1.2401,1.2401,1.24,1.24,1.2484,1.2487,1.2491,1.2522,0,0,1.2502,1.2504,0,0,0,0,0,0,0,0,1.2209,1.2218,1.2305,1.2308,1.2312,1.2373,1.235,1.2421,1.2401,1.2368,1.24,1.24,1.2448,1.2455,1.2472,1.2526,1.253,1.2503,1.2505,1.2507,1.2508,0,0,0,0,0,0,0,1.2204,1.2215,1.2315,1.2306,1.231,1.2317,1.2327,1.2364,1.2409,1.2371,1.2373,1.2383,1.245,1.2468,1.2474,1.2531,1.2503,1.2506,1.2508,1.251,1.2613,1.2614,0,0,0,0,0,0,1.2195,1.221,1.2313,1.2318,1.2259,1.232,1.2331,1.2354,1.2409,1.2417,1.2383,1.2384,1.2462,1.2469,1.2477,1.2516,1.2507,1.251,1.2512,1.2613,1.2613,1.2614,0,0,0,0,0,0,1.2192,1.2204,1.2309,1.2265,1.2279,1.2323,1.2348,1.2356,1.2374,1.2418,1.2426,1.2393,1.2462,1.2472,1.251,1.252,1.2512,1.2515,1.2612,1.2613,1.2614,1.2595,0,0,0,0,0,0,1.2188,1.2203,1.2216,1.2265,1.2281,1.2342,1.2349,1.2358,1.238,1.2382,1.243,1.2437,1.2462,1.2505,1.2514,1.2525,1.2518,1.2612,1.2613,1.2613,1.2595,1.2595,1.2595,0,0,0,0,0,1.2183,1.2207,1.2216,1.2228,1.2299,1.2343,1.2352,1.238,1.2381,1.2394,1.2422,1.2436,1.2517,1.2508,1.2519,1.2531,1.2611,1.2612,1.2613,1.2595,1.2595,1.2595,0,0,0,0,0,0,1.2157,1.2214,1.2225,1.2266,1.2299,1.2348,1.2365,1.238,1.2413,1.2414,1.2447,1.2457,1.2493,1.2516,1.2505,1.2563,1.2565,1.2568,1.2547,1.2547,1.2547,1.2541,1.2521,0,0,0,0,0,1.2156,1.2188,1.2236,1.2267,1.2283,1.2321,1.2342,1.2361,1.2396,1.241,1.2442,1.2475,1.2508,1.2529,1.2562,1.2598,1.2608,1.2611,1.2611,1.2611,1.2614,1.2633,1.2635,1.2618,1.2618,1.2618,0,0,1.2155,1.219,1.2208,1.2263,1.2291,1.2322,1.2333,1.2366,1.2389,1.2415,1.2454,1.2478,1.2517,1.2554,1.2572,1.2574,1.2621,1.2613,1.2612,1.2615,1.2635,1.2636,1.2638,1.2618,1.2618,1.2618,0,0,1.2168,1.2198,1.2227,1.2255,1.2297,1.2322,1.2329,1.2375,1.2392,1.2432,1.2451,1.2479,1.2535,1.2562,1.2583,1.2604,1.2618,1.2614,1.2614,1.2633,1.2634,1.2636,1.2642,1.2645,1.2616,1.2616,1.2616,0,1.216,1.2209,1.224,1.2272,1.2295,1.232,1.2349,1.2374,1.2424,1.2439,1.2441,1.2511,1.254,1.2583,1.2588,1.2604,1.2612,1.2609,1.2632,1.2633,1.2635,1.2642,1.2645,1.2615,1.2616,1.2616,1.2616,0,1.2197,1.2231,1.2249,1.2298,1.2323,1.2353,1.2387,1.2408,1.2424,1.2448,1.2487,1.2522,1.2561,1.2573,1.259,1.2618,1.2618,1.2625,1.2628,1.2635,1.2642,1.2645,1.2614,1.2615,1.2615,1.2615,0,0,1.2197,1.2262,1.2268,1.229,1.2338,1.2364,1.2394,1.2434,1.2451,1.2484,1.251,1.2556,1.2563,1.2586,1.2606,1.2622,1.2636,1.2627,1.2629,1.2627,1.2669,1.2663,1.2666,1.2645,1.2645,1.2646,1.2665,0,1.2216,1.2273,1.2301,1.2345,1.2375,1.2399,1.2425,1.2457,1.248,1.2508,1.2533,1.2565,1.2572,1.2586,1.2603,1.263,1.2644,1.2629,1.2668,1.2669,1.2658,1.2669,1.2664,1.268,1.2668,1.2669,1.2669,0,1.2247,1.228,1.2327,1.2371,1.2385,1.2408,1.2446,1.2473,1.2508,1.2524,1.2549,1.2568,1.26,1.2599,1.2643,1.2632,1.2649,1.2664,1.2666,1.267,1.267,1.2674,1.2686,1.2689,1.2674,1.2673,1.2673,0,1.2241,1.2298,1.2334,1.2352,1.2403,1.2419,1.2441,1.2476,1.2498,1.253,1.2544,1.2579,1.2598,1.2625,1.2652,1.265,1.2692,1.2695,1.2705,1.2704,1.2713,1.2712,1.2728,1.2725,1.2724,1.2724,1.2724,0,1.2259,1.2287,1.2332,1.2353,1.2384,1.2415,1.2445,1.2469,1.25,1.2525,1.2548,1.2571,1.2606,1.2633,1.2655,1.2686,1.2695,1.2708,1.2713,1.2706,1.2704,1.2718,1.2717,1.2725,1.2725,1.2725,1.2725,0,1.2258,1.2289,1.2329,1.2375,1.2387,1.2408,1.2446,1.2468,1.2491,1.2523,1.2533,1.257,1.2603,1.2633,1.2677,1.2691,1.2723,1.273,1.2712,1.2715,1.2723,1.2722,1.2748,1.2753,1.2746,1.2746,1.2746,0,1.2268,1.229,1.2337,1.2357,1.2379,1.2409,1.2431,1.2462,1.2483,1.2525,1.2541,1.2576,1.2606,1.2657,1.2688,1.2721,1.2729,1.2735,1.2734,1.2725,1.2728,1.2726,1.2728,1.2735,1.2735,1.2735,1.2735,0,1.2281,1.2295,1.2326,1.2363,1.2388,1.2418,1.2449,1.2463,1.2499,1.2522,1.2557,1.258,1.2624,1.2658,1.2695,1.2717,1.2731,1.2735,1.2739,1.2732,1.272,1.2726,1.2711,1.2735,1.2735,1.2735,1.2735,1.2735,1.2285,1.2305,1.2342,1.2376,1.2402,1.243,1.2452,1.2478,1.2508,1.2547,1.2563,1.2598,1.2632,1.2682,1.2704,1.2731,1.2734,1.274,1.2741,1.2742,1.2741,1.2716,1.2738,1.2738,1.2738,1.2738,1.2738,0,1.2299,1.2324,1.2354,1.2397,1.2423,1.2435,1.2469,1.249,1.252,1.2551,1.258,1.2619,1.2651,1.2684,1.2718,1.2733,1.2741,1.2741,1.2741,1.2745,1.2736,1.2729,1.2735,1.2735,1.2735,1.2735,1.2735,1.2735,1.2309,1.2344,1.2362,1.2409,1.2434,1.2469,1.2487,1.2512,1.2536,1.2579,1.2607,1.2628,1.2659,1.2696,1.2726,1.2734,1.2746,1.2744,1.2754,1.2746,1.2746,1.2746,1.2739,1.2746,1.2747,1.2761,1.2761,1.2761]},{"header":{"parameterUnit":"m.s-1","parameterCategory":1,"la1":30.2991,"la2":30.254,"lo1":-89.0895,"lo2":-89.0444,"dy":0.0017,"dx":0.0017,"nx":28,"ny":28,"refTime":"2023-08-22T21:00:00:Z","depth":0,"parameterNumber":3,"parameterNumberName":"V-component_of_WINDS"},"data":[0,0,0,0,0,0,0,0,0,0,0,0,0,0,0,0,0,0,0,0,0,0,0,0,0,0,0,0,0,0,0,0,0,0,0,0,0,0,0,0,0,0,0,0,0,0,0,0,0,0,0,0,0,0,0,0,0,0,3.3413,3.3412,0,3.3321,3.332,3.3319,3.3293,3.3293,3.3294,3.3294,3.3191,3.3188,3.3185,0,0,0,0,0,0,0,0,0,0,0,0,0,3.3559,3.3557,3.3413,3.3412,3.3411,3.3321,3.332,3.3318,3.3293,3.3293,3.3294,3.3295,3.3192,3.3188,3.3184,0,0,0,0,0,0,0,0,0,0,0,0,0,3.3484,3.3556,3.3413,3.3387,3.3384,3.3321,3.3319,3.3318,3.3293,3.3293,3.3294,3.3295,3.3193,3.3189,3.3184,3.3137,0,0,3.3169,3.3167,0,0,0,0,0,0,0,0,3.3488,3.3479,3.3392,3.3389,3.3385,3.3319,3.3333,3.3257,3.3292,3.3327,3.3294,3.3295,3.3232,3.3224,3.3205,3.3132,3.3128,3.3168,3.3165,3.3163,3.3162,0,0,0,0,0,0,0,3.3494,3.3482,3.3376,3.3391,3.3387,3.3378,3.3368,3.3319,3.3276,3.3324,3.3322,3.3312,3.3231,3.321,3.3202,3.3126,3.3168,3.3164,3.3161,3.3159,3.3011,3.301,0,0,0,0,0,0,3.3504,3.3487,3.3379,3.3373,3.344,3.3375,3.3364,3.3339,3.3276,3.3268,3.3311,3.3311,3.3218,3.3208,3.3199,3.314,3.3163,3.3159,3.3156,3.3012,3.3011,3.301,0,0,0,0,0,0,3.3508,3.3495,3.3383,3.343,3.3415,3.3371,3.3344,3.3337,3.3316,3.3267,3.3258,3.3298,3.3218,3.3205,3.3153,3.3136,3.3157,3.3152,3.3013,3.3012,3.3011,3.3023,0,0,0,0,0,0,3.3512,3.3496,3.348,3.343,3.3412,3.3341,3.3343,3.3335,3.3309,3.3308,3.3253,3.3244,3.3218,3.3161,3.3149,3.313,3.3148,3.3015,3.3013,3.3011,3.3024,3.3022,3.302,0,0,0,0,0,3.3517,3.3485,3.3479,3.3466,3.3391,3.334,3.333,3.3303,3.3308,3.329,3.3258,3.3246,3.3141,3.3156,3.3142,3.3121,3.3016,3.3013,3.3011,3.3024,3.3022,3.302,0,0,0,0,0,0,3.353,3.3478,3.3471,3.3421,3.3386,3.3336,3.3312,3.3301,3.3261,3.3262,3.3227,3.3215,3.3165,3.3138,3.3156,3.3073,3.3078,3.3072,3.3092,3.309,3.3088,3.3095,3.3144,0,0,0,0,0,3.3528,3.3494,3.3449,3.3409,3.3392,3.3356,3.3332,3.3315,3.3276,3.326,3.3224,3.3184,3.3142,3.3115,3.3073,3.302,3.3007,3.2999,3.2998,3.2997,3.2992,3.2962,3.2958,3.3003,3.3003,3.3003,0,0,3.3521,3.3489,3.3468,3.3411,3.3382,3.3345,3.3343,3.3304,3.3275,3.3252,3.3202,3.3175,3.3128,3.3076,3.3051,3.3051,3.2977,3.2994,3.2993,3.2989,3.2959,3.2955,3.2951,3.3001,3.3001,3.3002,0,0,3.3491,3.3464,3.3428,3.34,3.3357,3.3333,3.3325,3.3277,3.3259,3.3209,3.3191,3.3156,3.3084,3.3052,3.3026,3.2986,3.2973,3.2973,3.2964,3.2935,3.2932,3.2928,3.2914,3.2909,3.2969,3.2969,3.2969,0,3.3487,3.3434,3.341,3.3373,3.3348,3.333,3.3293,3.3265,3.3209,3.3191,3.3194,3.3105,3.3072,3.3012,3.3003,3.2983,3.2971,3.2979,3.2935,3.2931,3.2928,3.2913,3.2908,3.297,3.297,3.297,3.297,0,3.3432,3.3395,3.3371,3.3322,3.3294,3.3257,3.3226,3.32,3.3186,3.3162,3.311,3.3071,3.3021,3.3006,3.299,3.2944,3.2946,3.2942,3.2946,3.2924,3.291,3.2904,3.297,3.297,3.297,3.297,0,0,3.3404,3.3345,3.3337,3.3314,3.3267,3.3236,3.3198,3.3153,3.3132,3.3094,3.306,3.3002,3.2999,3.2969,3.295,3.2925,3.2896,3.2924,3.2923,3.292,3.2842,3.2844,3.2838,3.2888,3.2887,3.2886,3.2846,0,3.3367,3.3301,3.328,3.3224,3.3189,3.3173,3.3139,3.3105,3.3082,3.3047,3.302,3.2979,3.2979,3.2961,3.2936,3.2905,3.288,3.2908,3.2854,3.2852,3.2865,3.2831,3.2833,3.2797,3.284,3.2839,3.2838,0,3.3314,3.328,3.3222,3.3181,3.3165,3.3136,3.3094,3.3061,3.3022,3.3007,3.2976,3.2959,3.2917,3.2925,3.2865,3.2885,3.2861,3.2843,3.2841,3.2833,3.2843,3.2821,3.2785,3.2779,3.283,3.283,3.2831,0,3.33,3.3239,3.3196,3.3178,3.3128,3.3108,3.3086,3.3048,3.3023,3.2985,3.2968,3.2925,3.2901,3.2867,3.2839,3.2847,3.2781,3.2787,3.2766,3.2766,3.2751,3.2752,3.2708,3.2738,3.2738,3.2738,3.2738,0,3.3259,3.3224,3.3189,3.3163,3.3123,3.3098,3.3058,3.3035,3.3002,3.2969,3.2951,3.292,3.2885,3.2849,3.2827,3.278,3.2769,3.2754,3.2748,3.2755,3.2757,3.2738,3.2739,3.2737,3.2737,3.2737,3.2738,0,3.3235,3.3211,3.3163,3.3122,3.311,3.3083,3.3046,3.3018,3.2996,3.2955,3.2943,3.2907,3.2864,3.2833,3.2776,3.2761,3.2711,3.2706,3.2725,3.2722,3.2702,3.2704,3.2644,3.2635,3.2672,3.2672,3.2671,0,3.321,3.3184,3.314,3.3119,3.3098,3.3063,3.3039,3.3014,3.2988,3.2943,3.2921,3.2878,3.2842,3.2774,3.274,3.2697,3.269,3.2672,3.2683,3.2691,3.2688,3.269,3.2687,3.2669,3.2669,3.2669,3.2669,0,3.3169,3.3159,3.3126,3.3089,3.3062,3.303,3.2999,3.2981,3.295,3.2922,3.288,3.2853,3.2797,3.2754,3.2708,3.2683,3.267,3.2666,3.2659,3.2664,3.2677,3.2669,3.272,3.2667,3.2667,3.2667,3.2667,3.2667,3.3143,3.3119,3.3086,3.3049,3.3024,3.2995,3.2969,3.2944,3.291,3.2865,3.2852,3.2808,3.2769,3.2707,3.2682,3.2646,3.2646,3.2635,3.2632,3.263,3.263,3.2685,3.2637,3.2637,3.2637,3.2637,3.2637,0,3.31,3.3079,3.3046,3.3005,3.2976,3.2971,3.2936,3.2912,3.2875,3.2842,3.2808,3.276,3.2718,3.2683,3.264,3.2618,3.2611,3.2607,3.2607,3.2602,3.2632,3.2643,3.2613,3.2613,3.2613,3.2613,3.2613,3.2613,3.3075,3.3034,3.302,3.2966,3.2944,3.2904,3.2884,3.2857,3.2831,3.2779,3.2746,3.2725,3.2691,3.2645,3.2607,3.2597,3.2581,3.2579,3.2568,3.2597,3.2599,3.2602,3.2612,3.2576,3.2576,3.254,3.254,3.2539]}]]